#timestamp,LO_Frequency,Hit 
1497578415.2,286047008.7,N
1497578435.9,286047010.5,Y
1497578455.7,286047004.9,N
1497578475.6,286047004.8,N
1497578495.4,286047004.9,N
1497578515.2,286047004.5,N
1497578535.1,286047007.3,N
1497578536.0,286047007.3,N
1497578555.8,286047004.7,N
1497578575.6,286047005.2,N
1497578595.5,286047006.4,N
1497578615.3,286047007.5,N
1497578635.1,286047007.5,N
1497578655.9,286047004.9,N
1497578675.7,286047005.8,N
1497578695.5,286047003.8,N
1497578715.4,286047004.2,N
1497578735.2,286047003.0,N
1497578755.0,286047005.4,N
1497578755.9,286047005.4,N
1497578775.7,286047007.3,N
1497578795.6,286047007.2,N
1497578815.4,286047006.7,N
1497578835.2,286047004.7,N
1497578855.1,286047005.6,N
1497578856.0,286047005.6,N
1497578875.8,286047005.2,N
1497578895.6,286047006.8,N
1497578915.5,286047009.7,Y
1497578935.3,286047004.6,N
1497578955.1,286047005.3,N
1497578975.9,286047003.6,N
1497578995.7,286047001.9,N
1497579015.5,286047003.5,N
1497579035.4,286047002.9,N
1497579055.2,286047005.1,N
1497579075.0,286047007.4,N
1497579075.9,286047007.4,N
1497579095.8,286047001.3,N
1497579115.6,286047001.8,N
1497579135.4,286047001.5,N
1497579155.3,286047002.1,N
1497579175.1,286047002.7,N
1497579176.0,286047002.7,N
1497579195.8,286047004.8,N
1497579215.7,286047002.5,N
1497579235.5,286047000.2,N
1497579255.3,286046998.1,N
1497579275.1,286046999.9,N
1497579295.9,286047005.3,N
1497579315.7,286047006.6,N
1497579335.5,286047006.1,N
1497579355.4,286047007.9,N
1497579375.2,286047010.7,Y
1497579395.0,286047000.3,N
1497579395.9,286047000.3,N
1497579415.8,286047000.4,N
1497579435.6,286047003.9,N
1497579455.4,286047000.4,N
1497579475.3,286047000.5,N
1497579495.1,286047000.3,N
1497579496.0,286047000.3,N
1497579515.8,286047003.6,N
1497579535.7,286047004.6,N
1497579555.5,286047004.7,N
1497579575.3,286047005.7,N
1497579595.2,286047008.7,N
1497579615.9,286047007.2,N
1497579635.7,286047007.1,N
1497579655.5,286047007.4,N
1497579675.4,286047003.0,N
1497579695.2,286047006.6,N
1497579715.0,286047007.3,N
1497579715.9,286047007.3,N
1497579735.8,286047005.6,N
1497579755.6,286047006.8,N
1497579775.4,286047007.1,N
1497579795.3,286047004.0,N
1497579815.1,286047004.3,N
1497579835.8,286047003.8,N
1497579855.7,286047003.1,N
1497579875.5,286047004.0,N
1497579895.3,286047004.1,N
1497579915.2,286047007.4,N
1497579935.9,286047006.4,N
1497579955.7,286047005.3,N
1497579975.6,286047008.8,Y
1497579995.4,286047002.0,N
1497580015.2,286046999.7,N
1497580035.0,286047002.3,N
1497580036.0,286047002.3,N
1497580055.8,286046999.8,N
1497580075.6,286046999.3,N
1497580095.4,286046998.9,N
1497580115.3,286046998.9,N
1497580135.1,286047001.0,N
1497580155.8,286047002.1,N
1497580175.7,286047001.3,N
1497580195.5,286047000.1,N
1497580215.3,286047001.0,N
1497580235.2,286046999.2,N
1497580255.9,286047000.7,N
1497580275.7,286047000.7,N
1497580295.6,286046999.4,N
1497580315.4,286046996.5,N
1497580335.2,286047000.8,N
1497580355.0,286047002.3,N
1497580355.9,286047002.3,N
1497580375.8,286047000.2,N
1497580395.6,286046999.8,N
1497580415.4,286047000.2,N
1497580435.3,286047000.2,N
1497580455.1,286047001.4,N
1497580475.8,286047007.2,N
1497580495.7,286047004.7,N
1497580515.5,286047004.9,N
1497580535.3,286047008.7,Y
1497580555.2,286047002.0,N
1497580575.9,286047000.3,N
1497580595.7,286046999.5,N
1497580615.6,286047001.2,N
1497580635.4,286047000.1,N
1497580655.2,286046998.3,N
1497580675.1,286046996.7,N
1497580676.0,286046996.7,N
1497580695.8,286046998.6,N
1497580715.6,286047000.8,N
1497580735.4,286046998.7,N
1497580755.3,286046999.6,N
1497580775.1,286046996.5,N
1497580795.8,286047002.4,N
1497580815.7,286047001.4,N
1497580835.5,286046998.4,N
1497580855.3,286047001.2,N
1497580875.2,286046998.4,N
1497580895.9,286046999.5,N
1497580915.7,286046998.8,N
1497580935.6,286046999.8,N
1497580955.4,286047000.6,N
1497580975.2,286046999.8,N
1497580995.1,286047001.6,N
1497580996.0,286047001.6,N
1497581015.8,286047000.2,N
1497581035.6,286046998.2,N
1497581055.4,286046997.4,N
1497581075.3,286046996.9,N
1497581095.1,286046995.7,N
1497581115.8,286046996.7,N
1497581135.7,286046997.8,N
1497581155.5,286047000.8,N
1497581175.3,286047000.6,N
1497581195.2,286047000.0,N
1497581215.9,286047005.8,N
1497581235.7,286047004.3,N
1497581255.6,286046999.4,N
1497581275.4,286046999.1,N
1497581295.2,286046998.5,N
1497581315.0,286047000.3,N
1497581316.0,286047000.3,N
1497581335.8,286047000.1,N
1497581355.6,286047003.6,N
1497581375.4,286047002.8,N
1497581395.3,286047001.9,N
1497581415.1,286047001.4,N
1497581435.8,286047000.1,N
1497581455.7,286047002.2,N
1497581475.5,286047004.2,N
1497581495.3,286047002.8,N
1497581515.2,286047001.3,N
1497581535.9,286047003.8,N
1497581555.7,286047002.2,N
1497581575.6,286046999.7,N
1497581595.4,286047000.2,N
1497581615.2,286047002.8,N
1497581635.1,286047002.3,N
1497581636.0,286047002.3,N
1497581655.8,286047004.1,N
1497581675.6,286047003.6,N
1497581695.4,286047002.0,N
1497581715.3,286047003.7,N
1497581735.1,286047004.7,N
1497581755.8,286047002.0,N
1497581775.7,286047002.5,N
1497581795.5,286047003.7,N
1497581815.3,286047004.5,N
1497581835.2,286047000.8,N
1497581855.9,286046996.2,N
1497581875.7,286046994.0,N
1497581895.6,286046999.2,N
1497581915.4,286046996.0,N
1497581935.2,286046997.7,N
1497581955.0,286047006.0,N
1497581956.0,286047006.0,N
1497581975.8,286047008.1,N
1497581995.6,286047014.0,Y
